Location: Borovka
(49.7741°N, 14.5280°E)
Time: 16:57:03
(UTC+00:00)

Cosmos 841 Rocket - Pass Details

Date: 17 November 2025
Orbit: 742 x 768 km, 74.0° (Epoch: 12 December)

Event Time Altitude Azimuth Distance (km) Brightness Sun altitude
Rises 16:25:49 0° 341° (NNW) 3,247 6.8 -11.2°
Reaches altitude 10° 16:28:31 10° 352° (N) 2,319 5.9 -11.6°
Maximum altitude 16:33:06 29° 53° (NE) 1,378 4.3 -12.3°
Enters shadow 16:37:09 12° 110° (ESE) 2,150 5.3 -13.0°
